www.pogodaiklimat.ru

Погода и климат >> Архив погоды >> Французская Полинезия >> Bora-Bora Airport


ПОГОДА в Bora-Bora Airport

  • Прогноз погоды в Bora-Bora Airport
  • Монитор погоды в Bora-Bora Airport
  • Климат города

АРХИВ ПОГОДЫ в Bora-Bora Airport

Время (UTC), дата Ветер
(напр.,м/с)
 
Видим.   Явления Облачность Т
(С)
Тd
(С)
f
(%)
Тe
(С)
Тes
(С)
Комфортность P
(гПа)
Po
(гПа)
Тmin
(С)
Tmax
(С)
R
(мм)
R24
(мм)
S
(см)
01 10.12 С 3-3
{4}
24 км н/о +30.1 +22.5 64 +39 +39 очень
душно
1010.2 1009.9
02 10.12 СВ 3-3
{3}
27 км н/о +29.6 +22.8 67 +39 +39 очень
душно
1010.1 1009.8
03 10.12 СВ 3-3
{3}
22 км н/о +29.6 +23.1 68 +40 +40 очень
душно
1010.1 1009.8
04 10.12 СВ 2-3
{4}
25 км н/о +28.4 +23.3 74 +38 +38 очень
душно
1010.6 1010.3
05 10.12 СВ 2-3
{3}
25 км н/о +28.0 +22.9 74 +37 +37 очень
душно
1011.1 1010.8
06 10.12 СВ 3 24 км н/о +27.9 +23.1 75 +37 +37 очень
душно
1011.7 1011.4 +27.9 +31.2
07 10.12 СВ 3-3
{4}
26 км н/о +27.9 +23.1 75 +37 +37 очень
душно
1011.9 1011.6
08 10.12 СВ 3-4
{4}
23 км н/о +27.9 +22.6 73 +37 +37 очень
душно
1012.1 1011.8
09 10.12 С 4-5
{5}
20 км н/о +26.7 +22.3 77 +35 +35 очень
душно
1012.0 1011.7
10 10.12 СВ 6
{8}
25 км н/о +27.6 +22.3 73 +36 +36 очень
душно
1011.4 1011.1
11 10.12 СВ 3-3
{4}
24 км н/о +27.7 +22.9 75 +37 +37 очень
душно
1010.8 1010.5
12 10.12 СВ 3-4
{6}
22 км н/о +27.0 +22.8 78 +36 +36 очень
душно
1010.3 1010.0 0.0
13 10.12 В 3-4
{4}
18 км н/о +26.6 +23.1 81 +36 +36 очень
душно
1010.1 1009.8
14 10.12 СВ 3-4
{4}
27 км н/о +27.5 +22.2 73 +36 +36 очень
душно
1010.1 1009.8
15 10.12 С 3-4
{4}
30 км н/о +27.3 +22.0 73 +35 +35 очень
душно
1010.5 1010.2
16 10.12 СВ 3-4
{4}
29 км н/о +27.7 +22.6 74 +37 +37 очень
душно
1011.2 1010.9
17 10.12 СВ 3-4
{4}
24 км н/о +28.7 +22.9 71 +38 +38 очень
душно
1011.8 1011.5
18 10.12 СВ 3 24 км 8/6 600 м
[]
+28.4 +22.9 72 +38 +39 очень
душно
1012.1 1011.8 +26.1 +28.8
19 10.12 СВ 4-5
{5}
26 км н/о +29.8 +22.8 66 +39 +39 очень
душно
1012.2 1011.9 0.0
20 10.12 СВ 4-5
{5}
27 км н/о +30.2 +22.4 63 +39 +39 очень
душно
1011.9 1011.6
21 10.12 СВ 4-5
{5}
27 км н/о +30.8 +22.9 63 +41 +41 опасность
перегрева
1011.5 1011.2 0.0
22 10.12 СВ 3-4
{4}
27 км н/о +30.8 +22.1 60 +40 +40 очень
душно
1010.8 1010.5
23 10.12 СВ 3-4
{4}
27 км н/о +31.1 +22.7 61 +41 +41 опасность
перегрева
1010.2 1009.9
00 11.12 С 3-3
{4}
28 км н/о +30.9 +22.5 61 +40 +40 очень
душно
1009.6 1009.3
01 11.12 СВ 2-3
{3}
29 км н/о +30.6 +22.5 62 +40 +40 очень
душно
1009.0 1008.7
02 11.12 СВ 3-4
{4}
21 км н/о +30.1 +22.5 64 +39 +39 очень
душно
1008.7 1008.4
03 11.12 СВ 2-3
{3}
17 км н/о +29.4 +22.6 67 +39 +39 очень
душно
1008.9 1008.6
04 11.12 СВ 3-3
{3}
25 км н/о +28.8 +22.5 69 +38 +38 очень
душно
1009.3 1009.0
05 11.12 СВ 2-3
{3}
24 км н/о +28.4 +22.9 72 +38 +38 очень
душно
1010.0 1009.7
06 11.12 СВ 2 24 км н/о +28.1 +22.3 71 +37 +37 очень
душно
1010.4 1010.1 +27.6 +31.4
07 11.12 В 1-2
{5}
27 км 8/1 600 м
[]
+27.2 +22.8 77 +36 +36 очень
душно
1010.8 1010.5 0.0
08 11.12 СВ 3-3
{3}
23 км н/о +27.8 +22.7 74 +37 +37 очень
душно
1010.8 1010.5
09 11.12 СВ 3-3
{3}
24 км н/о +27.7 +22.9 75 +37 +37 очень
душно
1010.8 1010.5 0.0
10 11.12 СВ 3-3
{4}
25 км н/о +27.6 +22.3 73 +36 +36 очень
душно
1010.3 1010.0
11 11.12 СВ 3-3
{3}
26 км н/о +27.5 +22.4 74 +36 +36 очень
душно
1009.6 1009.3
12 11.12 СВ 2-3
{3}
20 км н/о +27.3 +22.5 75 +36 +36 очень
душно
1009.3 1009.0
13 11.12 СВ 3-3
{3}
24 км н/о +27.3 +22.5 75 +36 +36 очень
душно
1009.1 1008.8
14 11.12 СВ 2-3
{4}
21 км н/о +27.1 +22.3 75 +35 +35 очень
душно
1009.2 1008.9
15 11.12 СВ 2-3
{3}
24 км н/о +27.1 +22.5 76 +36 +36 очень
душно
1009.7 1009.4
16 11.12 СВ 2-2
{3}
28 км н/о +27.6 +22.5 74 +36 +36 очень
душно
1010.5 1010.2
17 11.12 СВ 1-2
{3}
30 км н/о +28.0 +22.5 72 +37 +37 очень
душно
1011.2 1010.9 0.0
18 11.12 С 2 35 км н/о +27.7 +22.0 71 +36 +36 очень
душно
1011.7 1011.4 +26.4 +28.1 0.0
19 11.12 С 2-3
{3}
22 км н/о +29.6 +22.6 66 +39 +39 очень
душно
1011.9 1011.6
20 11.12 С 2-3
{3}
22 км н/о +30.0 +22.2 63 +39 +39 очень
душно
1011.9 1011.6
21 11.12 СВ 2-2
{3}
24 км н/о +30.3 +21.1 58 +38 +38 очень
душно
1011.5 1011.2
22 11.12 СВ 2-2
{3}
26 км н/о +30.5 +21.3 58 +38 +38 очень
душно
1011.0 1010.7
23 11.12 С 2-2
{3}
27 км н/о +30.7 +21.8 59 +39 +39 очень
душно
1010.5 1010.2
00 12.12 СВ 1-2
{2}
30 км н/о +30.6 +22.2 61 +40 +40 очень
душно
1010.4 1010.1
01 12.12 СВ 1-2
{3}
35 км н/о +30.3 +21.4 59 +38 +38 очень
душно
1010.0 1009.7
02 12.12 СВ 1-2
{3}
35 км н/о +30.1 +22.0 62 +39 +39 очень
душно
1010.0 1009.7
03 12.12 СВ 1-2
{2}
45 км н/о +29.6 +21.8 63 +38 +38 очень
душно
1010.5 1010.2
04 12.12 СВ 1-1
{2}
45 км н/о +28.6 +21.6 66 +37 +37 очень
душно
1011.1 1010.8
05 12.12 В 1-1
{2}
50 км н/о +27.9 +22.4 72 +37 +37 очень
душно
1011.8 1011.5
06 12.12 В 1 50 км н/о +27.0 +22.4 76 +35 +35 очень
душно
1012.2 1011.9 +27.0 +31.1
07 12.12 В 1-1
{1}
50 км н/о +26.8 +22.4 77 +35 +35 очень
душно
1012.3 1012.0
08 12.12 В 1-1
{1}
30 км н/о +26.7 +22.5 78 +35 +35 очень
душно
1012.2 1011.9
09 12.12 В 1-2
{2}
25 км н/о +27.2 +22.6 76 +36 +36 очень
душно
1011.7 1011.4
10 12.12 В 1-2
{2}
27 км н/о +27.4 +21.9 72 +35 +35 очень
душно
1011.2 1010.9
11 12.12 В 1-2
{2}
30 км н/о +27.5 +21.8 71 +35 +35 очень
душно
1010.5 1010.2
12 12.12 В 1-2
{2}
30 км 10/10
[]
+27.0 +21.5 72 +34 +34 очень
душно
1009.9 1009.6
13 12.12 В 1-1
{2}
35 км н/о +25.9 +21.1 75 +33 +33 очень
душно
1009.6 1009.3
14 12.12 В 1-2
{2}
30 км 10/10
[]
+27.2 +21.7 72 +35 +35 очень
душно
1009.9 1009.6
15 12.12 СВ 1-2
{2}
35 км 10/3 600 м
[]
+27.2 +22.4 75 +36 +36 очень
душно
1010.0 1009.7
17 12.12 СВ 2-2
{3}
28 км н/о +28.9 +23.1 71 +39 +39 очень
душно
1010.5 1010.2
18 12.12 СВ 3 35 км н/о +28.8 +23.2 72 +39 +39 очень
душно
1010.6 1010.3 +25.9 +29.5
20 12.12 СВ 2-2
{3}
50 км н/о +30.0 +22.7 65 +40 +40 очень
душно
1011.3 1011.0
19 12.12 СВ 2-2
{3}
50 км н/о +30.0 +22.7 65 +40 +40 очень
душно
1011.3 1011.0
21 12.12 С 2-2
{2}
55 км н/о +30.0 +23.0 66 +40 +40 очень
душно
1011.0 1010.7
22 12.12 С 1-2
{2}
40 км н/о +30.2 +22.1 62 +39 +39 очень
душно
1010.7 1010.4
23 12.12 С 2
{4}
60 км н/о +29.6 +21.5 62 +38 +38 очень
душно
1010.3 1010.0
00 13.12 З 1-2
{2}
60 км н/о +29.5 +22.2 65 +38 +38 очень
душно
1009.5 1009.2
02 13.12 СВ 1-1
{1}
45 км н/о +28.9 +22.4 68 +38 +38 очень
душно
1008.4 1008.1
01 13.12 ЮЗ 1-2
{2}
60 км н/о +29.6 +22.1 64 +38 +38 очень
душно
1008.9 1008.6
03 13.12 СВ 1-2
{2}
40 км н/о +29.0 +23.0 70 +39 +39 очень
душно
1008.4 1008.1
04 13.12 СВ 1-1
{2}
45 км н/о +28.3 +23.0 73 +38 +38 очень
душно
1009.0 1008.7
05 13.12 СВ 1-1
{2}
50 км 10/1 600 м
[]
+28.0 +22.5 72 +37 +37 очень
душно
1009.8 1009.5
06 13.12 В 1 60 км 10/10
[]
+27.6 +22.8 75 +37 +37 очень
душно
1010.3 1010.0 +27.6 +30.7
08 13.12 В 1-1
{1}
26 км 9/9
[]
+26.6 +22.9 80 +35 +35 очень
душно
1011.1 1010.8
07 13.12 В 1-1
{2}
40 км н/о +27.3 +22.7 76 +36 +36 очень
душно
1010.9 1010.6
09 13.12 В 2-2
{2}
60 км 9/8 600 м
[]
+27.5 +23.3 78 +37 +37 очень
душно
1010.9 1010.6
10 13.12 СЗ 1-2
{3}
29 км 10/9 300 м
[]
+26.1 +23.4 85 +35 +35 очень
душно
1010.4 1010.1 0.4
11 13.12 Ю 1-2
{3}
50 км 9/1 600 м
[]
+26.4 +23.9 86 +36 +36 очень
душно
1009.5 1009.2
12 13.12 ЮВ 1-1
{1}
50 км н/о +26.2 +24.2 89 +36 +36 очень
душно
1008.8 1008.5 0.4
14 13.12 ЮВ 1
{2}
60 км н/о +25.8 +23.8 89 +35 +35 очень
душно
1008.5 1008.2
13 13.12 Ю 1-2
{4}
35 км 10/10 300 м
[]
+26.0 +24.0 89 +36 +36 очень
душно
1008.5 1008.2 0.0
15 13.12 штиль 0
{2}
60 км н/о +25.6 +23.8 90 +35 +35 очень
душно
1008.8 1008.5 0.0
16 13.12 ЮВ 1-1
{1}
50 км н/о +26.1 +24.7 92 +37 +37 очень
душно
1009.5 1009.2
17 13.12 Ю 1
{2}
60 км 10/10 300 м
[]
+28.7 +24.5 78 +41 +41 опасность
перегрева
1010.3 1010.0
18 13.12 В 1 60 км н/о +28.9 +22.9 70 +38 +38 очень
душно
1010.5 1010.2 +25.5 +29.5
20 13.12 СВ 1-2
{2}
60 км н/о +30.5 +23.7 67 +42 +42 опасность
перегрева
1010.6 1010.3
19 13.12 СВ 1-2
{2}
60 км н/о +30.0 +23.4 68 +41 +41 опасность
перегрева
1010.8 1010.5
21 13.12 СВ 2-2
{2}
60 км н/о +30.6 +23.3 65 +41 +41 опасность
перегрева
1010.2 1009.9
22 13.12 СВ 2-2
{2}
60 км н/о +30.7 +22.8 63 +41 +41 опасность
перегрева
1009.2 1008.9
23 13.12 СВ 2-2
{2}
60 км н/о +30.7 +22.8 63 +41 +41 опасность
перегрева
1008.3 1008.0
00 14.12 С 2-3
{3}
60 км н/о +30.4 +22.0 61 +39 +39 очень
душно
1007.6 1007.3
02 14.12 С 1-2
{2}
60 км н/о +30.4 +22.6 63 +40 +40 очень
душно
1007.2 1006.9
01 14.12 С 2-2
{2}
60 км н/о +30.6 +22.5 62 +40 +40 очень
душно
1007.2 1006.9
03 14.12 С 1-2
{2}
60 км 8/8 2000 м
[]
+30.1 +22.5 64 +39 +40 очень
душно
1008.0 1007.7
04 14.12 СВ 1-1
{2}
55 км н/о +28.9 +22.4 68 +38 +38 очень
душно
1008.5 1008.2
05 14.12 В 1-1
{1}
55 км н/о +28.5 +22.5 70 +37 +37 очень
душно
1009.2 1008.9
06 14.12 В 1 60 км н/о +28.1 +22.8 73 +37 +37 очень
душно
1009.6 1009.3 +27.9 +31.2
08 14.12 ЮВ 1-2
{2}
60 км н/о +27.7 +23.1 76 +37 +37 очень
душно
1009.8 1009.5
07 14.12 ЮВ 1-2
{2}
60 км н/о +27.9 +23.5 77 +38 +38 очень
душно
1009.9 1009.6
09 14.12 В 2-2
{2}
55 км н/о +27.8 +23.6 78 +38 +38 очень
душно
1009.7 1009.4
10 14.12 В 2-3
{3}
30 км н/о +28.0 +24.0 79 +39 +39 очень
душно
1009.0 1008.7
11 14.12 В 3-3
{3}
40 км н/о +27.9 +23.7 78 +38 +38 очень
душно
1008.1 1007.8
12 14.12 В 2-3
{4}
40 км 8/5 300 м
[]
+27.7 +23.9 80 +38 +38 очень
душно
1007.2 1006.9
14 14.12 В 2-3
{4}
40 км 8/3 600 м
[]
+27.8 +23.4 77 +38 +38 очень
душно
1006.9 1006.6
13 14.12 В 4
{6}
35 км н/о +27.8 +23.6 78 +38 +38 очень
душно
1007.0 1006.7
15 14.12 В 3-3
{4}
45 км 10/10
[]
+28.0 +23.4 76 +38 +38 очень
душно
1007.3 1007.0
16 14.12 СВ 4-5
{5}
30 км н/о +28.0 +24.2 80 +39 +39 очень
душно
1008.3 1008.0
17 14.12 В 3-4
{4}
35 км н/о +28.2 +24.0 78 +39 +39 очень
душно
1009.2 1008.9
18 14.12 В 3 40 км н/о +28.5 +24.1 77 +40 +40 очень
душно
1009.7 1009.4 +27.1 +28.6
20 14.12 СВ 3-4
{4}
10 км слабый дождь 9/3 300 м
[]
+27.6 +24.0 81 +38 +44 очень
душно
1010.1 1009.8 0.4
19 14.12 СВ 3-4
{4}
40 км н/о +28.4 +23.5 75 +39 +39 очень
душно
1010.1 1009.8
21 14.12 СВ 3-4
{4}
8000 м слабый дождь 10/5 300 м
[]
+27.3 +24.2 83 +38 +42 очень
душно
1008.9 1008.6 0.8
22 14.12 СВ 5-6
{6}
16 км н/о +28.0 +24.6 82 +40 +40 очень
душно
1007.4 1007.1 0.0
23 14.12 СВ 5-6
{6}
25 км 9/6 300 м
[]
+28.4 +24.4 79 +40 +43 очень
душно
1006.8 1006.5
00 15.12 С 4-5
{6}
23 км 9/6 300 м
[]
+28.9 +24.9 79 +41 +45 опасность
перегрева
1006.9 1006.6 0.0
02 15.12 С 3-4
{4}
30 км н/о +29.1 +24.0 74 +40 +40 очень
душно
1006.3 1006.0
01 15.12 С 3-4
{4}
25 км н/о +29.2 +24.7 77 +42 +42 опасность
перегрева
1006.4 1006.1
03 15.12 С 3-4
{5}
25 км 9/4 300 м
[]
+28.6 +24.2 77 +40 +41 очень
душно
1006.9 1006.6
04 15.12 С 3-4
{4}
25 км 10/6 300 м
[]
+28.3 +24.3 79 +40 +40 очень
душно
1007.3 1007.0
05 15.12 С 3-4
{4}
26 км н/о +28.0 +24.0 79 +39 +39 очень
душно
1007.8 1007.5
06 15.12 С 3 24 км н/о +27.9 +24.1 80 +39 +39 очень
душно
1008.3 1008.0 +27.2 +29.4
08 15.12 С 3-4
{4}
21 км н/о +27.9 +24.1 80 +39 +39 очень
душно
1008.6 1008.3
07 15.12 СВ 3-4
{4}
25 км н/о +27.9 +23.7 78 +38 +38 очень
душно
1008.7 1008.4
09 15.12 СВ 3-4
{5}
25 км н/о +28.0 +24.0 79 +39 +39 очень
душно
1008.2 1007.9
10 15.12 СВ 6
{9}
23 км н/о +28.0 +24.0 79 +39 +39 очень
душно
1007.6 1007.3
11 15.12 СВ 4-5
{5}
22 км н/о +28.0 +23.8 78 +39 +39 очень
душно
1006.4 1006.1
12 15.12 СВ 3-4
{5}
22 км н/о +27.5 +24.1 82 +38 +38 очень
душно
1006.0 1005.7
14 15.12 С 3-4
{6}
22 км н/о +27.3 +24.7 86 +39 +39 очень
душно
1006.2 1005.9 0.0
13 15.12 С 7
{9}
29 км н/о +27.7 +24.1 81 +39 +39 очень
душно
1005.7 1005.4
15 15.12 С 4-4
{5}
23 км н/о +27.6 +24.2 82 +39 +39 очень
душно
1006.2 1005.9 0.0
16 15.12 С 4-5
{5}
22 км н/о +27.3 +24.4 84 +38 +38 очень
душно
1006.7 1006.4
17 15.12 С 2-3
{6}
11 км слабый дождь н/о +26.4 +25.2 93 +38 +38 очень
душно
1007.2 1006.9 2
18 15.12 С 4 2600 м дождь 9/8 300 м
[]
+26.4 +25.0 92 +38 +39 очень
душно
1008.0 1007.7 +26.1 +28.1 2
20 15.12 С 8
{11}
21 км 9/9 300 м
[]
+27.4 +25.0 87 +39 +40 очень
душно
1008.3 1008.0
19 15.12 С 2-3
{3}
19 км н/о +27.3 +25.5 90 +40 +40 очень
душно
1008.0 1007.7 0.0
21 15.12 С 4-5
{6}
20 км 8/8 200 м
[]
+27.5 +25.3 88 +40 +43 очень
душно
1007.5 1007.2 0.0
22 15.12 С 4-5
{5}
35 км н/о +28.6 +25.2 82 +42 +42 опасность
перегрева
1007.0 1006.7
23 15.12 СЗ 3-4
{5}
5000 м слабый дождь 9/9 300 м
[]
+28.0 +24.6 82 +40 +41 очень
душно
1007.2 1006.9 0.2
00 16.12 С 4-5
{6}
19 км 9/8 300 м
[]
+28.1 +26.5 91 +43 +45 опасность
перегрева
1006.7 1006.4 7
02 16.12 С 4-5
{6}
20 км 9/9 1500 м
[]
+28.1 +24.1 79 +39 +40 очень
душно
1006.6 1006.3
01 16.12 С 5-6
{7}
16 км н/о +27.5 +24.7 85 +39 +39 очень
душно
1006.5 1006.2
03 16.12 С 5-6
{6}
23 км 10/10 1500 м
[]
+27.0 +23.3 80 +36 +36 очень
душно
1006.4 1006.1
04 16.12 С 5-6
{6}
30 км 9/9 1500 м
[]
+26.5 +23.8 85 +36 +36 очень
душно
1008.1 1007.8
05 16.12 С 4-5
{5}
35 км 9/9
[]
+26.6 +24.3 87 +37 +37 очень
душно
1008.3 1008.0 0.0
06 16.12 СВ 4 28 км 10/10
[]
+26.7 +24.7 89 +38 +38 очень
душно
1008.9 1008.6 +25.8 +29.6 0.0
08 16.12 С 6
{8}
28 км 10/0
[]
+27.2 +24.5 85 +38 +38 очень
душно
1008.6 1008.3
07 16.12 С 3-4
{5}
30 км 10/3 300 м
[]
+26.8 +24.6 88 +38 +38 очень
душно
1008.6 1008.3
09 16.12 С 3-4
{4}
30 км 9/6 300 м
[]
+27.3 +24.9 87 +39 +39 очень
душно
1008.0 1007.7
10 16.12 С 3-4
{4}
30 км 9/4 300 м
[]
+27.5 +24.4 83 +39 +39 очень
душно
1007.3 1007.0
11 16.12 С 4-4
{4}
30 км 10/8 300 м
[]
+27.6 +24.6 84 +39 +39 очень
душно
1006.7 1006.4
12 16.12 С 4-4
{5}
29 км 9/1 300 м
[]
+27.4 +24.1 82 +38 +38 очень
душно
1006.3 1006.0
14 16.12 СЗ 3-4
{5}
28 км 8/1 300 м
[]
+27.2 +24.1 83 +38 +38 очень
душно
1006.1 1005.8
13 16.12 С 3-4
{4}
27 км 9/6 300 м
[]
+27.3 +24.2 83 +38 +38 очень
душно
1006.4 1006.1
15 16.12 С 2-3
{3}
35 км н/о +27.4 +24.3 83 +38 +38 очень
душно
1006.1 1005.8
16 16.12 СЗ 3-5
{5}
29 км н/о +27.1 +23.6 81 +37 +37 очень
душно
1007.1 1006.8
17 16.12 С 3-4
{5}
28 км н/о +27.1 +23.6 81 +37 +37 очень
душно
1007.9 1007.6
18 16.12 С 3 28 км н/о +27.6 +24.2 82 +39 +39 очень
душно
1008.1 1007.8 +26.6 +27.7
20 16.12 С 4-5
{5}
35 км н/о +28.3 +24.7 81 +40 +40 очень
душно
1008.7 1008.4 0.0
19 16.12 С 5
{7}
35 км н/о +28.5 +23.9 76 +39 +39 очень
душно
1008.4 1008.1 0.0
21 16.12 С 6-7
{8}
4500 м дымка н/о +26.8 +24.8 89 +38 +38 очень
душно
1008.6 1008.3 0.4
22 16.12 С 5-6
{7}
12 км 8/8 300 м
[]
+26.7 +24.5 88 +38 +40 очень
душно
1008.4 1008.1
23 16.12 С 3-4
{5}
28 км н/о +26.5 +23.2 82 +36 +36 очень
душно
1007.8 1007.5 0.0

 

Местоположение метеостанции Bora-Bora Airport (Французская Полинезия): широта -16.43 долгота -151.70 высота над уровнем моря 3 м.

В архиве по умолчанию представлена погода в Bora-Bora Airport за последнюю неделю. Архивные данные за месяц целиком и за предыдущие месяцы, начиная с января 2011 года, Вы можете получить, выбрав интересующий диапазон дат из раскрывающегося списка и нажав кнопку "Ввод!".

Внимание! Время в таблицах - всемирное. Для получения местного времени необходимо прибавить поправку, которая в Bora-Bora Airport равна -10 ч.

Смотрите также архив погоды в соседних городах и на ближайших метеорологических станциях:

Погода в Tahiti-Faaa (Французская Полинезия) (256 км)
Погода в Tautira (Французская Полинезия) (307 км)
Погода в Takaroa (Французская Полинезия) (750 км)
Погода в Hereheretue (Французская Полинезия) (806 км)
Погода в Tubuai (Французская Полинезия) (806 км)
Погода в Aitutaki (Кука Острова) (889 км)
Погода в Rarotonga (Кука Острова) (1004 км)
Погода в Penrhyn (Кука Острова) (1070 км)
Погода в Hao (Французская Полинезия) (1161 км)
Погода в Manihiki (Кука Острова) (1209 км)

Пояснения к столбцам:

Ветер - указаны скорость ветра в м/с - средняя за 10 мин, порывы в срок и между сроками (в фигурных скобках) и направление, откуда дует ветер: С - северный, СВ - северо-восточный, В - восточный, ЮВ - юго-восточный, Ю - южный, ЮЗ - юго-западный, З - западный, СЗ - северо-западный.
Видимость - горизонтальная дальность видимости в метрах или километрах. При видимости от 1 до 10 км при отсутствии осадков обычно наблюдается дымка, при ухудшении видимости до 1 км и менее - туман. В сухую погоду видимость может ухудшаться дымом, пылью или мглою.
Явления - указаны атмосферные явления, наблюдавшиеся в срок или в последний час перед сроком; фигурными скобками обозначены явления, наблюдавшиеся между сроками (за 1-3 часа до срока); квадратными скобками обозначены град или гололедные отложения с указанием их диаметра в мм.
Облачность - указаны через наклонную черту общая и нижняя облачность в баллах и высота нижней границы облаков в метрах; квадратными скобками обозначены формы облаков: Ci - перистые, Cs - перисто-слоистые, Cc - перисто-кучевые, Ac - высококучевые, As - высокослоистые, Sc - слоисто-кучевые, Ns - слоисто-дождевые, Cu - кучевые, Cb - кучево-дождевые. Подробнее классификацию облаков см. в Атласе облаков (PDF).
T - Температура воздуха - температура, измеренная на высоте 2 м над землей.
Td - Температура точки росы - температура, при понижении до которой содержащийся в воздухе водяной пар достигнет насыщения.
f - Относительная влажность воздуха - влажноcть воздуха, измеренная на высоте 2 м над землей.
Te - Эффективная температура - температура, которую ощущает одетый по сезону человек в тени. Характеристика душности погоды. При расчете учитывается влияние влажности воздуха и скорости ветра на теплоощущения человека.
Tes - Эффективная температура на солнце - температура, которую ощущает человек, с поправкой на солнечный нагрев. Характеристика знойности погоды. Зависит от высоты солнца над горизонтом, облачности и скорости ветра. Ночью, в пасмурную погоду, а также при ветре 12 м/с и более поправка равна нулю.
P - Атмосферное давление - приведенное к уровню моря атмосферное давление.
Po - Атмосферное давление - измеренное на уровне метеостанции атмосферное давление.
Tmin - Минимальная температура - минимум температуры воздуха на высоте 2 м над землей.
Tmax - Максимальная температура - максимум температуры воздуха на высоте 2 м над землей.
R - Количество осадков - Количество выпавших осадков за период времени, мм. При наведении курсора мыши на число - период времени, за который выпало указанное количество осадков.
R24 - Количество осадков - Количество выпавших осадков за 24 часа, мм.
S - Снежный покров - Высота снежного покрова, см. При наведении курсора мыши на число - состояние снежного покрова и степень покрытия местности в баллах.